[[{"header":{"parameterUnit":"m.s-1","parameterCategory":1,"la1":30.2991,"la2":30.254,"lo1":-89.0895,"lo2":-89.0444,"dy":0.0017,"dx":0.0017,"nx":28,"ny":28,"refTime":"2024-06-07T03:00:00:Z","depth":0,"parameterNumber":2,"parameterNumberName":"U-component_of_WINDS"},"data":[0,0,0,0,0,0,0,0,0,0,0,0,0,0,0,0,0,0,0,0,0,0,0,0,0,0,0,0,0,0,0,0,0,0,0,0,0,0,0,0,0,0,0,0,0,0,0,0,0,0,0,0,0,0,0,0,0,0,-1.2962,-1.2961,0,-1.287,-1.2869,-1.2868,-1.2823,-1.2823,-1.2823,-1.2823,-1.2725,-1.2723,-1.272,0,0,0,0,0,0,0,0,0,0,0,0,0,-1.3091,-1.3089,-1.2962,-1.2961,-1.2959,-1.2871,-1.2869,-1.2868,-1.2823,-1.2823,-1.2823,-1.2823,-1.2726,-1.2723,-1.272,0,0,0,0,0,0,0,0,0,0,0,0,0,-1.3021,-1.3088,-1.2962,-1.2926,-1.2922,-1.2871,-1.2869,-1.2868,-1.2823,-1.2823,-1.2823,-1.2823,-1.2727,-1.2724,-1.272,-1.2696,0,0,-1.2708,-1.2706,0,0,0,0,0,0,0,0,-1.3025,-1.3016,-1.2933,-1.2929,-1.2924,-1.2858,-1.2879,-1.281,-1.2823,-1.286,-1.2823,-1.2823,-1.2769,-1.2762,-1.2745,-1.2691,-1.2687,-1.2708,-1.2705,-1.2703,-1.2702,0,0,0,0,0,0,0,-1.303,-1.302,-1.2925,-1.2931,-1.2926,-1.2913,-1.2903,-1.2866,-1.2816,-1.2857,-1.2854,-1.2844,-1.2767,-1.2749,-1.2742,-1.2686,-1.2708,-1.2704,-1.2702,-1.27,-1.2605,-1.2605,0,0,0,0,0,0,-1.3041,-1.3024,-1.2928,-1.2923,-1.2976,-1.2911,-1.2899,-1.2879,-1.2816,-1.2807,-1.2844,-1.2842,-1.2755,-1.2747,-1.2739,-1.2705,-1.2704,-1.27,-1.2698,-1.2605,-1.2605,-1.2605,0,0,0,0,0,0,-1.3044,-1.3033,-1.2932,-1.2972,-1.2959,-1.2908,-1.2886,-1.2877,-1.2859,-1.2806,-1.2796,-1.2835,-1.2755,-1.2744,-1.2706,-1.2701,-1.2698,-1.2695,-1.2606,-1.2605,-1.2605,-1.2638,0,0,0,0,0,0,-1.3048,-1.3034,-1.3026,-1.2973,-1.2957,-1.2903,-1.2886,-1.2876,-1.2853,-1.285,-1.2795,-1.2786,-1.2754,-1.2713,-1.2703,-1.2695,-1.2692,-1.2606,-1.2606,-1.2605,-1.2638,-1.2639,-1.2641,0,0,0,0,0,-1.3053,-1.3039,-1.3026,-1.3015,-1.2946,-1.2903,-1.2894,-1.2859,-1.2853,-1.2843,-1.2809,-1.2788,-1.2703,-1.2709,-1.2698,-1.2689,-1.2606,-1.2606,-1.2605,-1.2637,-1.2639,-1.2641,0,0,0,0,0,0,-1.3092,-1.3031,-1.3017,-1.2985,-1.295,-1.2896,-1.2883,-1.2862,-1.2827,-1.2825,-1.2781,-1.2769,-1.2735,-1.2708,-1.2716,-1.2661,-1.2652,-1.265,-1.268,-1.2682,-1.2684,-1.269,-1.2688,0,0,0,0,0,-1.3098,-1.307,-1.3017,-1.2995,-1.2978,-1.2933,-1.2914,-1.2889,-1.285,-1.2835,-1.2798,-1.2759,-1.2724,-1.2701,-1.2666,-1.2633,-1.262,-1.2622,-1.2623,-1.2625,-1.2623,-1.2601,-1.2601,-1.2604,-1.2604,-1.2604,0,0,-1.3108,-1.3071,-1.3056,-1.3002,-1.2972,-1.2942,-1.2921,-1.2891,-1.2868,-1.283,-1.2792,-1.2763,-1.2717,-1.2682,-1.2664,-1.2658,-1.2619,-1.2624,-1.2626,-1.2623,-1.26,-1.26,-1.26,-1.2603,-1.2603,-1.2603,0,0,-1.3111,-1.3082,-1.3059,-1.3029,-1.2983,-1.2953,-1.2948,-1.2896,-1.2876,-1.2838,-1.2808,-1.2779,-1.2719,-1.2687,-1.2663,-1.2652,-1.263,-1.2642,-1.265,-1.2629,-1.2629,-1.2628,-1.2622,-1.2621,-1.264,-1.264,-1.264,0,-1.3129,-1.3085,-1.3049,-1.302,-1.2996,-1.2961,-1.2936,-1.2908,-1.2853,-1.2836,-1.2831,-1.2754,-1.2721,-1.2676,-1.2673,-1.2655,-1.2646,-1.2647,-1.2632,-1.2631,-1.263,-1.2624,-1.2622,-1.2641,-1.2641,-1.2641,-1.2641,0,-1.3109,-1.3078,-1.3064,-1.3013,-1.2987,-1.296,-1.2918,-1.2896,-1.2874,-1.2844,-1.2804,-1.2763,-1.2717,-1.2705,-1.2683,-1.2656,-1.2653,-1.2641,-1.263,-1.2632,-1.2625,-1.2623,-1.2644,-1.2643,-1.2642,-1.2642,0,0,-1.3135,-1.3063,-1.3059,-1.3034,-1.298,-1.2955,-1.2925,-1.2882,-1.2863,-1.2825,-1.2798,-1.2748,-1.2735,-1.2707,-1.2681,-1.2663,-1.2654,-1.2651,-1.2649,-1.2652,-1.262,-1.2629,-1.2627,-1.264,-1.2639,-1.2639,-1.2623,0,-1.313,-1.3077,-1.3043,-1.3002,-1.2972,-1.2938,-1.2911,-1.2875,-1.2845,-1.2814,-1.2781,-1.2745,-1.2732,-1.2715,-1.2696,-1.2659,-1.2647,-1.266,-1.2612,-1.261,-1.2623,-1.2624,-1.2634,-1.2622,-1.262,-1.262,-1.262,0,-1.3117,-1.3081,-1.3038,-1.2986,-1.2972,-1.295,-1.2906,-1.2877,-1.2833,-1.2813,-1.2782,-1.2755,-1.2719,-1.2713,-1.2662,-1.2672,-1.265,-1.2629,-1.2628,-1.2621,-1.2615,-1.2616,-1.2617,-1.2615,-1.2615,-1.2616,-1.2616,0,-1.3138,-1.3079,-1.3046,-1.3026,-1.2965,-1.2949,-1.2922,-1.2879,-1.2854,-1.2815,-1.2798,-1.2756,-1.2732,-1.2699,-1.266,-1.2659,-1.2612,-1.2603,-1.2593,-1.2593,-1.2584,-1.2585,-1.258,-1.2572,-1.2572,-1.2572,-1.2572,0,-1.3136,-1.311,-1.3054,-1.3033,-1.3003,-1.2963,-1.2933,-1.2904,-1.2865,-1.2836,-1.2803,-1.2776,-1.2727,-1.2693,-1.2662,-1.2624,-1.2614,-1.2595,-1.2587,-1.2597,-1.26,-1.2582,-1.2581,-1.2571,-1.2571,-1.2572,-1.2572,0,-1.3155,-1.3116,-1.3077,-1.3022,-1.3008,-1.2988,-1.2939,-1.2917,-1.2885,-1.2849,-1.2838,-1.2788,-1.2746,-1.2704,-1.2648,-1.2627,-1.2589,-1.2579,-1.2604,-1.26,-1.2591,-1.2592,-1.2574,-1.2568,-1.2565,-1.2565,-1.2565,0,-1.3155,-1.3135,-1.3078,-1.3057,-1.3031,-1.2997,-1.2972,-1.2931,-1.2905,-1.2853,-1.2836,-1.2792,-1.2755,-1.269,-1.2647,-1.2603,-1.2591,-1.2587,-1.2584,-1.2594,-1.2588,-1.259,-1.2586,-1.2588,-1.2589,-1.2589,-1.2589,0,-1.3159,-1.3141,-1.3106,-1.3065,-1.3036,-1.3,-1.2964,-1.2948,-1.2899,-1.2872,-1.2829,-1.28,-1.2743,-1.2699,-1.265,-1.262,-1.2595,-1.2591,-1.2585,-1.2595,-1.261,-1.26,-1.2607,-1.2591,-1.2591,-1.2591,-1.2591,-1.259,-1.3167,-1.3147,-1.3103,-1.3065,-1.3034,-1.3,-1.2975,-1.2941,-1.2905,-1.2856,-1.2833,-1.279,-1.2744,-1.2676,-1.2646,-1.261,-1.2604,-1.2597,-1.2595,-1.2594,-1.2595,-1.2617,-1.2601,-1.2601,-1.2601,-1.2601,-1.2601,0,-1.3168,-1.3138,-1.3104,-1.3054,-1.3024,-1.3005,-1.2963,-1.2938,-1.2901,-1.2861,-1.2825,-1.2775,-1.2731,-1.2685,-1.2638,-1.2618,-1.2606,-1.2607,-1.2608,-1.2601,-1.2605,-1.2613,-1.2618,-1.2618,-1.2618,-1.2618,-1.2618,-1.2618,-1.3165,-1.3129,-1.3106,-1.3052,-1.3022,-1.298,-1.2958,-1.2925,-1.2893,-1.2839,-1.2803,-1.2774,-1.273,-1.268,-1.2638,-1.2626,-1.2609,-1.2614,-1.2598,-1.2602,-1.2601,-1.26,-1.2607,-1.2611,-1.2611,-1.2596,-1.2596,-1.2596]},{"header":{"parameterUnit":"m.s-1","parameterCategory":1,"la1":30.2991,"la2":30.254,"lo1":-89.0895,"lo2":-89.0444,"dy":0.0017,"dx":0.0017,"nx":28,"ny":28,"refTime":"2024-06-07T03:00:00:Z","depth":0,"parameterNumber":3,"parameterNumberName":"V-component_of_WINDS"},"data":[0,0,0,0,0,0,0,0,0,0,0,0,0,0,0,0,0,0,0,0,0,0,0,0,0,0,0,0,0,0,0,0,0,0,0,0,0,0,0,0,0,0,0,0,0,0,0,0,0,0,0,0,0,0,0,0,0,0,-0.6845,-0.6845,0,-0.6799,-0.6798,-0.6798,-0.6807,-0.6808,-0.6808,-0.6809,-0.676,-0.6758,-0.6756,0,0,0,0,0,0,0,0,0,0,0,0,0,-0.6941,-0.6939,-0.6845,-0.6845,-0.6844,-0.6799,-0.6798,-0.6797,-0.6807,-0.6808,-0.6809,-0.681,-0.6761,-0.6759,-0.6756,0,0,0,0,0,0,0,0,0,0,0,0,0,-0.6897,-0.6938,-0.6846,-0.6843,-0.6843,-0.6799,-0.6798,-0.6797,-0.6806,-0.6808,-0.6809,-0.681,-0.6762,-0.6759,-0.6756,-0.6711,0,0,-0.6746,-0.6745,0,0,0,0,0,0,0,0,-0.69,-0.6894,-0.6844,-0.6843,-0.6843,-0.681,-0.6814,-0.6768,-0.6806,-0.682,-0.6809,-0.6811,-0.6776,-0.6772,-0.676,-0.6709,-0.6707,-0.6746,-0.6744,-0.6743,-0.6742,0,0,0,0,0,0,0,-0.6903,-0.6896,-0.6827,-0.6843,-0.6842,-0.6844,-0.6839,-0.6805,-0.6791,-0.6819,-0.6819,-0.6814,-0.6775,-0.6763,-0.6759,-0.6706,-0.6746,-0.6743,-0.6741,-0.674,-0.6613,-0.6612,0,0,0,0,0,0,-0.6907,-0.6898,-0.6828,-0.6825,-0.6875,-0.6841,-0.6836,-0.6819,-0.6792,-0.6789,-0.6813,-0.6814,-0.6768,-0.6762,-0.6757,-0.6701,-0.6743,-0.674,-0.6738,-0.6615,-0.6613,-0.6611,0,0,0,0,0,0,-0.6909,-0.69,-0.683,-0.6862,-0.6853,-0.6838,-0.6819,-0.6817,-0.6805,-0.6787,-0.6785,-0.6803,-0.6768,-0.6762,-0.6722,-0.6699,-0.6738,-0.6735,-0.6616,-0.6614,-0.6612,-0.6589,0,0,0,0,0,0,-0.6911,-0.6901,-0.6884,-0.6861,-0.6851,-0.6796,-0.6818,-0.6816,-0.68,-0.6801,-0.6777,-0.6774,-0.6769,-0.6726,-0.6719,-0.6696,-0.6733,-0.6618,-0.6615,-0.6613,-0.6592,-0.6586,-0.6582,0,0,0,0,0,-0.6915,-0.688,-0.6883,-0.6875,-0.683,-0.6795,-0.6789,-0.6784,-0.6798,-0.678,-0.6769,-0.6775,-0.6704,-0.6722,-0.6714,-0.6689,-0.662,-0.6616,-0.6613,-0.6594,-0.6588,-0.6582,0,0,0,0,0,0,-0.69,-0.6877,-0.688,-0.6837,-0.6818,-0.6797,-0.6774,-0.6778,-0.6754,-0.6756,-0.6751,-0.6746,-0.6705,-0.6694,-0.6715,-0.6644,-0.6663,-0.6658,-0.6652,-0.6646,-0.6641,-0.6643,-0.673,0,0,0,0,0,-0.6892,-0.6866,-0.6847,-0.6811,-0.6801,-0.6789,-0.6774,-0.6772,-0.6751,-0.6743,-0.6729,-0.6708,-0.6681,-0.6663,-0.6637,-0.6591,-0.6585,-0.657,-0.6565,-0.6561,-0.6556,-0.6528,-0.6521,-0.66,-0.66,-0.66,0,0,-0.6875,-0.6859,-0.6843,-0.6807,-0.6792,-0.6764,-0.6782,-0.6752,-0.6731,-0.6738,-0.6699,-0.6688,-0.6665,-0.6621,-0.6601,-0.661,-0.6533,-0.6557,-0.6554,-0.6551,-0.6524,-0.6516,-0.651,-0.6598,-0.6598,-0.6599,0,0,-0.6829,-0.6815,-0.6782,-0.6766,-0.6743,-0.6735,-0.6728,-0.6705,-0.6698,-0.6659,-0.6663,-0.6638,-0.6592,-0.6574,-0.6559,-0.6506,-0.651,-0.6498,-0.6471,-0.6444,-0.6438,-0.6432,-0.641,-0.6403,-0.6493,-0.6493,-0.6493,0,-0.681,-0.6768,-0.6765,-0.6734,-0.6717,-0.6723,-0.6689,-0.6674,-0.6643,-0.6631,-0.6642,-0.6583,-0.6569,-0.6519,-0.6506,-0.6495,-0.6484,-0.6499,-0.6439,-0.6433,-0.6428,-0.6407,-0.6399,-0.6492,-0.6492,-0.6492,-0.6492,0,-0.6745,-0.6716,-0.6692,-0.6662,-0.6643,-0.6611,-0.6602,-0.6583,-0.6583,-0.6573,-0.6533,-0.6515,-0.6485,-0.6474,-0.6473,-0.6424,-0.643,-0.644,-0.646,-0.6419,-0.6399,-0.6391,-0.6489,-0.649,-0.649,-0.6491,0,0,-0.6687,-0.6655,-0.6646,-0.6632,-0.6606,-0.6583,-0.6551,-0.6521,-0.6504,-0.6483,-0.6454,-0.6415,-0.6424,-0.6407,-0.6404,-0.6381,-0.6337,-0.6394,-0.6393,-0.6382,-0.6279,-0.6269,-0.626,-0.634,-0.6339,-0.6338,-0.628,0,-0.6637,-0.6579,-0.6575,-0.6522,-0.6494,-0.6499,-0.6471,-0.6451,-0.6442,-0.6416,-0.6406,-0.6377,-0.6392,-0.6382,-0.6359,-0.6347,-0.6316,-0.6352,-0.6311,-0.631,-0.6314,-0.625,-0.6241,-0.6187,-0.6272,-0.6271,-0.627,0,-0.657,-0.6546,-0.649,-0.6467,-0.6455,-0.6429,-0.6401,-0.6377,-0.6355,-0.635,-0.633,-0.6331,-0.6296,-0.6319,-0.627,-0.6294,-0.6278,-0.6269,-0.6267,-0.6261,-0.6286,-0.624,-0.617,-0.6161,-0.6258,-0.6259,-0.626,0,-0.653,-0.6484,-0.6444,-0.6432,-0.6405,-0.6386,-0.6374,-0.6353,-0.6335,-0.631,-0.6298,-0.627,-0.6254,-0.6232,-0.6224,-0.6242,-0.6175,-0.6197,-0.6168,-0.6168,-0.6152,-0.6152,-0.6075,-0.6146,-0.6146,-0.6146,-0.6146,0,-0.6472,-0.6437,-0.6426,-0.6401,-0.6362,-0.6357,-0.6319,-0.6307,-0.6289,-0.6261,-0.6265,-0.6239,-0.6232,-0.6204,-0.6198,-0.6157,-0.6151,-0.6144,-0.6143,-0.6142,-0.6143,-0.613,-0.6132,-0.6144,-0.6144,-0.6145,-0.6145,0,-0.642,-0.6411,-0.6368,-0.6345,-0.6339,-0.6311,-0.6291,-0.6267,-0.6258,-0.6223,-0.6215,-0.6201,-0.6168,-0.6159,-0.6121,-0.6117,-0.6068,-0.6071,-0.6075,-0.6074,-0.6044,-0.6046,-0.5954,-0.594,-0.6022,-0.6021,-0.6021,0,-0.6382,-0.6356,-0.633,-0.6312,-0.6299,-0.627,-0.6251,-0.6246,-0.6226,-0.6198,-0.6176,-0.6145,-0.6118,-0.6066,-0.6052,-0.6022,-0.6023,-0.5993,-0.6019,-0.6018,-0.6019,-0.602,-0.6016,-0.5987,-0.5986,-0.5986,-0.5985,0,-0.6316,-0.6313,-0.6286,-0.6257,-0.6234,-0.6211,-0.6189,-0.6174,-0.6166,-0.6143,-0.611,-0.609,-0.605,-0.6017,-0.5987,-0.5973,-0.5976,-0.5977,-0.5968,-0.5966,-0.5969,-0.5964,-0.6059,-0.5979,-0.598,-0.598,-0.598,-0.5981,-0.6268,-0.6244,-0.6221,-0.6191,-0.6174,-0.6153,-0.6128,-0.6116,-0.6088,-0.6055,-0.6054,-0.6017,-0.5995,-0.5954,-0.5939,-0.5909,-0.5918,-0.5906,-0.5902,-0.5899,-0.5895,-0.5976,-0.5904,-0.5904,-0.5905,-0.5905,-0.5905,0,-0.6199,-0.6185,-0.6157,-0.6126,-0.6101,-0.6108,-0.6084,-0.6062,-0.603,-0.6009,-0.5983,-0.5944,-0.5912,-0.5895,-0.5864,-0.5843,-0.5844,-0.5835,-0.5835,-0.5831,-0.589,-0.59,-0.5834,-0.5834,-0.5834,-0.5834,-0.5834,-0.5834,-0.6161,-0.6119,-0.6113,-0.6062,-0.6048,-0.6012,-0.5997,-0.5977,-0.596,-0.5916,-0.5889,-0.5879,-0.5859,-0.5826,-0.5796,-0.5792,-0.5779,-0.5768,-0.5765,-0.582,-0.5827,-0.5834,-0.5843,-0.5766,-0.5766,-0.5708,-0.5707,-0.5707]}]]